Time,TemperatureF,DewpointF,PressureIn,WindDirection,WindDirectionDegrees,WindSpeedMPH,WindSpeedGustMPH,Humidity,HourlyPrecipIn,Conditions,Clouds,dailyrainin,SolarRadiationWatts/m^2,SoftwareType,DateUTC
2013-09-07 00:00:00,53.5,50.9,30.15,SSW,195,0.0,0.0,91,0.00,,CLR,0.00,0.00,VWS V14.01,2013-09-07 04:00:00,
2013-09-07 00:01:00,53.5,50.9,30.15,SSW,195,0.0,0.0,91,0.00,,CLR,0.00,0.00,VWS V14.01,2013-09-07 04:01:00,
2013-09-07 00:02:00,53.4,50.8,30.15,SSW,195,0.0,0.0,91,0.00,,CLR,0.00,0.00,VWS V14.01,2013-09-07 04:02:00,
2013-09-07 00:03:00,53.4,50.8,30.14,SSW,195,0.0,0.0,91,0.00,,CLR,0.00,0.00,VWS V14.01,2013-09-07 04:03:00,
2013-09-07 00:06:00,53.4,50.8,30.14,SSW,195,0.0,0.0,91,0.00,,CLR,0.00,0.00,VWS V14.01,2013-09-07 04:06:00,
2013-09-07 00:11:00,53.2,50.7,30.14,SSW,195,0.0,0.0,91,0.00,,CLR,0.00,0.00,VWS V14.01,2013-09-07 04:11:00,
2013-09-07 00:16:00,53.1,50.5,30.14,SSW,195,0.0,0.0,91,0.00,,CLR,0.00,0.00,VWS V14.01,2013-09-07 04:16:00,
2013-09-07 00:21:00,52.9,50.3,30.14,SSW,195,0.0,0.0,91,0.00,,CLR,0.00,0.00,VWS V14.01,2013-09-07 04:21:00,
2013-09-07 00:26:00,52.8,50.2,30.14,SSW,195,0.0,0.0,91,0.00,,CLR,0.00,0.00,VWS V14.01,2013-09-07 04:26:00,
2013-09-07 00:31:00,52.8,50.2,30.14,SSW,195,0.0,0.0,91,0.00,,CLR,0.00,0.00,VWS V14.01,2013-09-07 04:31:00,
2013-09-07 00:36:00,52.8,50.2,30.14,SSW,195,0.0,0.0,91,0.00,,CLR,0.00,0.00,VWS V14.01,2013-09-07 04:36:00,
2013-09-07 00:41:00,52.6,50.0,30.14,SSW,195,0.0,0.0,91,0.00,,CLR,0.00,0.00,VWS V14.01,2013-09-07 04:41:00,
2013-09-07 00:46:00,52.6,50.0,30.14,SSW,195,0.0,0.0,91,0.00,,CLR,0.00,0.00,VWS V14.01,2013-09-07 04:46:00,
2013-09-07 00:51:00,52.6,50.0,30.14,SSW,195,0.0,0.0,91,0.00,,CLR,0.00,0.00,VWS V14.01,2013-09-07 04:51:00,
2013-09-07 00:57:00,52.6,50.3,30.14,SSW,195,0.0,0.0,92,0.00,,CLR,0.00,0.00,VWS V14.01,2013-09-07 04:57:00,
2013-09-07 01:02:00,52.5,50.2,30.14,SSW,195,0.0,0.0,92,0.00,,CLR,0.00,0.00,VWS V14.01,2013-09-07 05:02:00,
2013-09-07 01:07:00,52.5,50.2,30.15,SSW,195,0.0,0.0,92,0.00,,CLR,0.00,0.00,VWS V14.01,2013-09-07 05:07:00,
2013-09-07 01:12:00,52.5,50.2,30.15,SSW,195,0.0,0.0,92,0.00,,CLR,0.00,0.00,VWS V14.01,2013-09-07 05:12:00,
2013-09-07 01:17:00,52.5,50.2,30.15,SSW,195,0.0,0.0,92,0.00,,CLR,0.00,0.00,VWS V14.01,2013-09-07 05:17:00,
2013-09-07 01:22:00,52.3,50.0,30.14,SSW,195,0.0,0.0,92,0.00,,CLR,0.00,0.00,VWS V14.01,2013-09-07 05:22:00,
2013-09-07 01:27:00,52.3,50.0,30.14,SSW,195,0.0,0.0,92,0.00,,CLR,0.00,0.00,VWS V14.01,2013-09-07 05:27:00,
2013-09-07 01:32:00,52.2,50.0,30.14,SSW,195,0.0,0.0,92,0.00,,CLR,0.00,0.00,VWS V14.01,2013-09-07 05:32:00,
2013-09-07 01:37:00,52.1,49.8,30.14,SSW,195,0.0,0.0,92,0.00,,CLR,0.00,0.00,VWS V14.01,2013-09-07 05:37:00,
2013-09-07 01:42:00,52.1,49.8,30.14,SSW,195,0.0,0.0,92,0.00,,CLR,0.00,0.00,VWS V14.01,2013-09-07 05:42:00,
2013-09-07 01:47:00,52.2,50.2,30.14,SSW,195,0.0,0.0,93,0.00,,CLR,0.00,0.00,VWS V14.01,2013-09-07 05:47:00,
2013-09-07 01:52:00,52.1,49.8,30.14,SSW,195,0.0,0.0,92,0.00,,CLR,0.00,0.00,VWS V14.01,2013-09-07 05:52:00,
2013-09-07 01:57:00,52.1,50.1,30.14,SSW,195,0.0,0.0,93,0.00,,CLR,0.00,0.00,VWS V14.01,2013-09-07 05:57:00,
2013-09-07 02:02:00,51.9,49.7,30.13,SSW,195,0.0,0.0,92,0.00,,CLR,0.00,0.00,VWS V14.01,2013-09-07 06:02:00,
2013-09-07 02:08:00,51.8,49.5,30.13,SSW,195,0.0,0.0,92,0.00,,CLR,0.00,0.00,VWS V14.01,2013-09-07 06:08:00,
2013-09-07 02:13:00,51.6,49.4,30.13,SSW,195,0.0,0.0,92,0.00,,CLR,0.00,0.00,VWS V14.01,2013-09-07 06:13:00,
2013-09-07 02:18:00,51.5,49.5,30.13,SSW,195,0.0,0.0,93,0.00,,CLR,0.00,0.00,VWS V14.01,2013-09-07 06:18:00,
2013-09-07 02:23:00,51.5,49.5,30.13,SSW,195,0.0,0.0,93,0.00,,CLR,0.00,0.00,VWS V14.01,2013-09-07 06:23:00,
2013-09-07 02:28:00,51.6,49.7,30.13,SSW,195,0.0,0.0,93,0.00,,CLR,0.00,0.00,VWS V14.01,2013-09-07 06:28:00,
2013-09-07 02:33:00,51.5,49.5,30.13,SSW,195,0.0,0.0,93,0.00,,CLR,0.00,0.00,VWS V14.01,2013-09-07 06:33:00,
2013-09-07 02:38:00,51.5,49.5,30.13,SSW,195,0.0,0.0,93,0.00,,CLR,0.00,0.00,VWS V14.01,2013-09-07 06:38:00,
2013-09-07 02:43:00,51.3,49.3,30.13,SSW,195,0.0,0.0,93,0.00,,CLR,0.00,0.00,VWS V14.01,2013-09-07 06:43:00,
2013-09-07 02:48:00,51.2,49.2,30.13,SSW,195,0.0,0.0,93,0.00,,CLR,0.00,0.00,VWS V14.01,2013-09-07 06:48:00,
2013-09-07 02:53:00,51.0,49.0,30.13,SSW,195,0.0,0.0,93,0.00,,CLR,0.00,0.00,VWS V14.01,2013-09-07 06:53:00,
2013-09-07 02:58:00,51.2,49.5,30.13,SSW,195,0.0,0.0,94,0.00,,CLR,0.00,0.00,VWS V14.01,2013-09-07 06:58:00,
2013-09-07 03:03:00,51.2,49.5,30.13,SSW,195,0.0,0.0,94,0.00,,CLR,0.00,0.00,VWS V14.01,2013-09-07 07:03:00,
2013-09-07 03:08:00,51.2,49.5,30.13,SSW,195,0.0,0.0,94,0.00,,CLR,0.00,0.00,VWS V14.01,2013-09-07 07:08:00,
2013-09-07 03:14:00,51.0,49.3,30.13,SSW,195,0.0,0.0,94,0.00,,CLR,0.00,0.00,VWS V14.01,2013-09-07 07:14:00,
2013-09-07 03:19:00,50.9,49.2,30.12,SSW,195,0.0,0.0,94,0.00,,CLR,0.00,0.00,VWS V14.01,2013-09-07 07:19:00,
2013-09-07 03:24:00,50.9,49.2,30.12,SSW,195,0.0,0.0,94,0.00,,CLR,0.00,0.00,VWS V14.01,2013-09-07 07:24:00,
2013-09-07 03:29:00,50.9,49.2,30.12,SSW,195,0.0,0.0,94,0.00,,CLR,0.00,0.00,VWS V14.01,2013-09-07 07:29:00,
2013-09-07 03:34:00,50.9,49.2,30.12,SSW,195,0.0,0.0,94,0.00,,CLR,0.00,0.00,VWS V14.01,2013-09-07 07:34:00,
2013-09-07 03:39:00,50.9,49.2,30.12,SSW,195,0.0,0.0,94,0.00,,CLR,0.00,0.00,VWS V14.01,2013-09-07 07:39:00,
2013-09-07 03:44:00,50.7,49.0,30.12,SSW,195,0.0,0.0,94,0.00,,CLR,0.00,0.00,VWS V14.01,2013-09-07 07:44:00,
2013-09-07 03:49:00,50.7,49.0,30.12,SSW,195,0.0,0.0,94,0.00,,CLR,0.00,0.00,VWS V14.01,2013-09-07 07:49:00,
2013-09-07 03:54:00,50.6,48.9,30.12,SSW,195,0.0,0.0,94,0.00,,CLR,0.00,0.00,VWS V14.01,2013-09-07 07:54:00,
2013-09-07 03:59:00,50.6,48.9,30.12,SSW,195,0.0,0.0,94,0.00,,CLR,0.00,0.00,VWS V14.01,2013-09-07 07:59:00,
2013-09-07 04:04:00,50.4,48.7,30.12,SSW,195,0.0,0.0,94,0.00,,SCT001,0.00,0.00,VWS V14.01,2013-09-07 08:04:00,
2013-09-07 04:10:00,50.3,48.6,30.12,SSW,195,0.0,0.0,94,0.00,,SCT001,0.00,0.00,VWS V14.01,2013-09-07 08:10:00,
2013-09-07 04:15:00,50.4,48.7,30.12,SSW,195,0.0,0.0,94,0.00,,SCT001,0.00,0.00,VWS V14.01,2013-09-07 08:15:00,
2013-09-07 04:20:00,50.3,48.6,30.12,SSW,195,0.0,0.0,94,0.00,,SCT001,0.00,0.00,VWS V14.01,2013-09-07 08:20:00,
2013-09-07 04:25:00,50.3,48.6,30.12,SSW,195,0.0,0.0,94,0.00,,SCT001,0.00,0.00,VWS V14.01,2013-09-07 08:25:00,
2013-09-07 04:30:00,50.1,48.7,30.12,SSW,195,0.0,0.0,95,0.00,,SCT001,0.00,0.00,VWS V14.01,2013-09-07 08:30:00,
2013-09-07 04:35:00,50.1,48.4,30.12,SSW,195,0.0,0.0,94,0.00,,SCT001,0.00,0.00,VWS V14.01,2013-09-07 08:35:00,
2013-09-07 04:40:00,50.0,48.6,30.12,SSW,195,0.0,0.0,95,0.00,,SCT001,0.00,0.00,VWS V14.01,2013-09-07 08:40:00,
2013-09-07 04:45:00,50.0,48.6,30.12,SSW,195,0.0,0.0,95,0.00,,SCT001,0.00,0.00,VWS V14.01,2013-09-07 08:45:00,
2013-09-07 04:50:00,49.8,48.4,30.12,SSW,195,0.0,0.0,95,0.00,,SCT001,0.00,0.00,VWS V14.01,2013-09-07 08:50:00,
2013-09-07 04:55:00,49.8,48.4,30.12,SSW,195,0.0,0.0,95,0.00,,SCT001,0.00,0.00,VWS V14.01,2013-09-07 08:55:00,
2013-09-07 05:00:00,49.5,47.8,30.12,SSW,195,0.0,0.0,94,0.00,,SCT001,0.00,0.00,VWS V14.01,2013-09-07 09:00:00,
2013-09-07 05:05:00,49.4,47.8,30.12,SSW,195,0.0,0.0,94,0.00,,CLR,0.00,0.00,VWS V14.01,2013-09-07 09:05:00,
2013-09-07 05:10:00,49.1,47.7,30.12,SSW,195,0.0,0.0,95,0.00,,CLR,0.00,0.00,VWS V14.01,2013-09-07 09:10:00,
2013-09-07 05:16:00,49.1,47.7,30.12,SSW,195,0.0,0.0,95,0.00,,CLR,0.00,0.00,VWS V14.01,2013-09-07 09:16:00,
2013-09-07 05:21:00,48.9,47.5,30.11,SSW,195,0.0,0.0,95,0.00,,CLR,0.00,0.00,VWS V14.01,2013-09-07 09:21:00,
2013-09-07 05:26:00,48.9,47.5,30.11,SSW,195,0.0,0.0,95,0.00,,CLR,0.00,0.00,VWS V14.01,2013-09-07 09:26:00,
2013-09-07 05:31:00,48.8,47.4,30.11,SSW,195,0.0,0.0,95,0.00,,CLR,0.00,0.00,VWS V14.01,2013-09-07 09:31:00,
2013-09-07 05:36:00,48.6,47.2,30.12,SSW,195,0.0,0.0,95,0.00,,CLR,0.00,0.00,VWS V14.01,2013-09-07 09:36:00,
2013-09-07 05:41:00,48.6,47.2,30.12,SSW,195,0.0,0.0,95,0.00,,CLR,0.00,0.00,VWS V14.01,2013-09-07 09:41:00,
2013-09-07 05:46:00,48.6,47.2,30.12,SSW,195,0.0,0.0,95,0.00,,CLR,0.00,0.00,VWS V14.01,2013-09-07 09:46:00,
2013-09-07 05:51:00,48.8,47.4,30.11,SSW,195,0.0,0.0,95,0.00,,CLR,0.00,0.00,VWS V14.01,2013-09-07 09:51:00,
2013-09-07 05:56:00,48.6,47.2,30.11,SSW,195,0.0,0.0,95,0.00,,CLR,0.00,0.00,VWS V14.01,2013-09-07 09:56:00,
2013-09-07 06:01:00,48.6,47.2,30.11,SSW,195,0.0,0.0,95,0.00,,CLR,0.00,0.00,VWS V14.01,2013-09-07 10:01:00,
2013-09-07 06:06:00,48.5,47.1,30.11,SSW,195,0.0,0.0,95,0.00,,,0.00,0.00,VWS V14.01,2013-09-07 10:06:00,
2013-09-07 06:11:00,48.5,47.1,30.11,SSW,195,0.0,0.0,95,0.00,,,0.00,0.00,VWS V14.01,2013-09-07 10:11:00,
2013-09-07 06:16:00,48.4,47.0,30.11,SSW,195,0.0,0.0,95,0.00,,,0.00,0.00,VWS V14.01,2013-09-07 10:16:00,
2013-09-07 06:22:00,48.2,46.8,30.11,SSW,195,0.0,0.0,95,0.00,,,0.00,0.00,VWS V14.01,2013-09-07 10:22:00,
2013-09-07 06:27:00,48.2,47.1,30.11,SSW,195,0.0,0.0,96,0.00,,,0.00,0.00,VWS V14.01,2013-09-07 10:27:00,
2013-09-07 06:32:00,48.2,47.1,30.11,SSW,195,0.0,0.0,96,0.00,,,0.00,0.00,VWS V14.01,2013-09-07 10:32:00,
2013-09-07 06:37:00,47.9,46.5,30.11,SSW,195,0.0,0.0,95,0.00,,,0.00,0.00,VWS V14.01,2013-09-07 10:37:00,
2013-09-07 06:42:00,47.8,46.4,30.11,SSW,195,0.0,0.0,95,0.00,,,0.00,0.00,VWS V14.01,2013-09-07 10:42:00,
2013-09-07 06:47:00,47.9,46.8,30.11,SSW,195,0.0,0.0,96,0.00,,,0.00,0.00,VWS V14.01,2013-09-07 10:47:00,
2013-09-07 06:52:00,47.9,46.8,30.12,SSW,195,0.0,0.0,96,0.00,,,0.00,5.00,VWS V14.01,2013-09-07 10:52:00,
2013-09-07 06:57:00,48.2,47.4,30.12,SSW,195,0.0,0.0,97,0.00,,,0.00,5.00,VWS V14.01,2013-09-07 10:57:00,
2013-09-07 07:02:00,48.2,47.4,30.12,SSW,195,0.0,0.0,97,0.00,,,0.00,5.00,VWS V14.01,2013-09-07 11:02:00,
2013-09-07 07:07:00,48.4,47.6,30.12,SSW,195,0.0,0.0,97,0.00,,,0.00,7.00,VWS V14.01,2013-09-07 11:07:00,
2013-09-07 07:12:00,48.5,47.7,30.12,SSW,195,0.0,0.0,97,0.00,,,0.00,16.00,VWS V14.01,2013-09-07 11:12:00,
2013-09-07 07:17:00,48.5,47.7,30.13,SSW,195,0.0,0.0,97,0.00,,,0.00,21.00,VWS V14.01,2013-09-07 11:17:00,
2013-09-07 07:22:00,48.5,47.7,30.13,SSW,195,0.0,0.0,97,0.01,,,0.01,25.00,VWS V14.01,2013-09-07 11:22:00,
2013-09-07 07:27:00,48.5,47.7,30.13,SSW,195,0.0,0.0,97,0.01,,,0.01,30.00,VWS V14.01,2013-09-07 11:27:00,
2013-09-07 07:33:00,48.6,47.8,30.13,SSW,195,0.0,0.0,97,0.01,,,0.01,35.00,VWS V14.01,2013-09-07 11:33:00,
2013-09-07 07:38:00,48.6,47.8,30.13,SSW,195,0.0,0.0,97,0.01,,,0.01,42.00,VWS V14.01,2013-09-07 11:38:00,
2013-09-07 07:43:00,48.8,48.0,30.13,SSW,195,0.0,0.0,97,0.01,,,0.01,49.00,VWS V14.01,2013-09-07 11:43:00,
2013-09-07 07:48:00,48.9,48.1,30.13,SSW,195,0.0,0.0,97,0.01,,,0.01,48.00,VWS V14.01,2013-09-07 11:48:00,
2013-09-07 07:53:00,49.2,48.4,30.13,SSW,195,0.0,0.0,97,0.01,,,0.01,55.00,VWS V14.01,2013-09-07 11:53:00,
2013-09-07 07:58:00,49.2,48.4,30.13,SSW,195,0.0,1.0,97,0.01,,,0.01,62.00,VWS V14.01,2013-09-07 11:58:00,
2013-09-07 08:03:00,49.4,48.6,30.13,SSW,195,0.0,1.0,97,0.01,,,0.01,76.00,VWS V14.01,2013-09-07 12:03:00,
2013-09-07 08:08:00,49.5,48.7,30.13,SSW,195,0.0,0.0,97,0.01,,,0.01,91.00,VWS V14.01,2013-09-07 12:08:00,
2013-09-07 08:13:00,49.8,49.3,30.13,SSW,195,0.0,0.0,98,0.01,,,0.01,104.00,VWS V14.01,2013-09-07 12:13:00,
2013-09-07 08:18:00,50.1,49.6,30.12,SSW,195,1.0,1.0,98,0.01,,,0.01,99.00,VWS V14.01,2013-09-07 12:18:00,
2013-09-07 08:23:00,50.1,49.6,30.12,SSW,195,0.0,0.0,98,0.00,,,0.01,113.00,VWS V14.01,2013-09-07 12:23:00,
2013-09-07 08:28:00,50.3,49.8,30.12,SSW,195,0.0,0.0,98,0.00,,,0.01,116.00,VWS V14.01,2013-09-07 12:28:00,
2013-09-07 08:33:00,50.3,49.8,30.13,SSW,195,0.0,0.0,98,0.00,,,0.01,111.00,VWS V14.01,2013-09-07 12:33:00,
2013-09-07 08:39:00,50.4,49.9,30.13,SSW,195,0.0,0.0,98,0.00,,,0.01,104.00,VWS V14.01,2013-09-07 12:39:00,
2013-09-07 08:44:00,50.6,50.1,30.13,SSW,195,0.0,0.0,98,0.00,,,0.01,109.00,VWS V14.01,2013-09-07 12:44:00,
2013-09-07 08:49:00,50.7,50.2,30.12,SSW,195,0.0,0.0,98,0.00,,,0.01,118.00,VWS V14.01,2013-09-07 12:49:00,
2013-09-07 08:54:00,50.9,50.4,30.12,SSW,195,0.0,0.0,98,0.00,,,0.01,137.00,VWS V14.01,2013-09-07 12:54:00,
2013-09-07 08:59:00,51.0,50.5,30.12,SSW,195,0.0,0.0,98,0.00,,,0.01,178.00,VWS V14.01,2013-09-07 12:59:00,
2013-09-07 09:04:00,51.5,51.0,30.12,SSW,195,0.0,0.0,98,0.00,,,0.01,158.00,VWS V14.01,2013-09-07 13:04:00,
2013-09-07 09:09:00,51.9,51.4,30.12,SSW,195,0.0,1.0,98,0.00,,,0.01,125.00,VWS V14.01,2013-09-07 13:09:00,
2013-09-07 09:14:00,52.2,51.7,30.12,NW,309,0.0,1.0,98,0.00,,,0.01,63.00,VWS V14.01,2013-09-07 13:14:00,
2013-09-07 09:19:00,52.3,51.8,30.12,NW,309,0.0,3.0,98,0.00,,,0.01,40.00,VWS V14.01,2013-09-07 13:19:00,
2013-09-07 09:24:00,52.5,52.0,30.12,NW,309,0.0,1.0,98,0.00,,,0.01,42.00,VWS V14.01,2013-09-07 13:24:00,
2013-09-07 09:29:00,52.6,52.0,30.12,NW,326,0.0,3.0,98,0.00,,,0.01,324.00,VWS V14.01,2013-09-07 13:29:00,
2013-09-07 09:34:00,52.9,52.3,30.12,NW,326,0.0,2.0,98,0.00,,,0.01,245.00,VWS V14.01,2013-09-07 13:34:00,
2013-09-07 09:39:00,53.1,52.5,30.12,NW,326,0.0,2.0,98,0.00,,,0.01,55.00,VWS V14.01,2013-09-07 13:39:00,
2013-09-07 09:45:00,53.5,53.0,30.12,NW,326,0.0,0.0,98,0.00,,,0.01,62.00,VWS V14.01,2013-09-07 13:45:00,
2013-09-07 09:50:00,53.8,53.2,30.11,NW,326,0.0,1.0,98,0.00,,,0.01,58.00,VWS V14.01,2013-09-07 13:50:00,
2013-09-07 09:55:00,54.1,53.5,30.11,NW,326,0.0,0.0,98,0.00,,,0.01,76.00,VWS V14.01,2013-09-07 13:55:00,
2013-09-07 10:00:00,54.4,53.8,30.11,NNW,328,0.0,0.0,98,0.00,,,0.01,69.00,VWS V14.01,2013-09-07 14:00:00,
2013-09-07 10:05:00,54.7,54.2,30.11,NNW,328,0.0,0.0,98,0.00,,CLR,0.01,49.00,VWS V14.01,2013-09-07 14:05:00,
2013-09-07 10:10:00,55.2,54.4,30.11,NNW,328,0.0,0.0,97,0.00,,CLR,0.01,49.00,VWS V14.01,2013-09-07 14:10:00,
2013-09-07 10:15:00,55.6,54.8,30.11,NNW,328,0.0,1.0,97,0.00,,CLR,0.01,48.00,VWS V14.01,2013-09-07 14:15:00,
2013-09-07 10:20:00,56.2,55.1,30.11,NNW,328,0.0,2.0,96,0.00,,CLR,0.01,55.00,VWS V14.01,2013-09-07 14:20:00,
2013-09-07 10:25:00,56.8,54.8,30.11,NNW,328,0.0,0.0,93,0.00,,CLR,0.01,53.00,VWS V14.01,2013-09-07 14:25:00,
2013-09-07 10:30:00,57.4,54.5,30.11,NNW,328,0.0,1.0,90,0.00,,CLR,0.01,58.00,VWS V14.01,2013-09-07 14:30:00,
2013-09-07 10:35:00,58.2,54.4,30.11,NNW,328,0.0,1.0,87,0.00,,CLR,0.01,62.00,VWS V14.01,2013-09-07 14:35:00,
2013-09-07 10:40:00,58.9,55.0,30.11,NNW,328,0.0,1.0,87,0.00,,CLR,0.01,53.00,VWS V14.01,2013-09-07 14:40:00,
2013-09-07 10:45:00,59.4,54.2,30.11,NNW,328,0.0,1.0,83,0.00,,CLR,0.01,336.00,VWS V14.01,2013-09-07 14:45:00,
2013-09-07 10:51:00,60.0,54.2,30.11,NNW,332,0.0,1.0,81,0.00,,CLR,0.01,609.00,VWS V14.01,2013-09-07 14:51:00,
2013-09-07 10:56:00,60.8,54.6,30.11,NNW,336,0.0,1.0,80,0.00,,CLR,0.01,155.00,VWS V14.01,2013-09-07 14:56:00,
2013-09-07 11:01:00,61.6,54.7,30.11,NNW,336,0.0,1.0,78,0.00,,CLR,0.01,716.00,VWS V14.01,2013-09-07 15:01:00,
2013-09-07 11:06:00,62.4,55.1,30.10,NNW,336,0.0,1.0,77,0.00,,CLR,0.01,732.00,VWS V14.01,2013-09-07 15:06:00,
2013-09-07 11:11:00,63.5,54.7,30.10,NNW,336,0.0,2.0,73,0.00,,CLR,0.01,743.00,VWS V14.01,2013-09-07 15:11:00,
2013-09-07 11:16:00,64.6,55.4,30.10,NNW,336,0.0,0.0,72,0.00,,CLR,0.01,751.00,VWS V14.01,2013-09-07 15:16:00,
2013-09-07 11:21:00,65.4,55.4,30.09,NNW,336,0.0,0.0,70,0.00,,CLR,0.01,750.00,VWS V14.01,2013-09-07 15:21:00,
2013-09-07 11:26:00,66.8,55.9,30.09,NNW,336,0.0,0.0,68,0.00,,CLR,0.01,753.00,VWS V14.01,2013-09-07 15:26:00,
2013-09-07 11:31:00,67.9,55.7,30.09,NNW,336,0.0,0.0,65,0.00,,CLR,0.01,772.00,VWS V14.01,2013-09-07 15:31:00,
2013-09-07 11:36:00,68.8,57.0,30.08,NNW,336,0.0,1.0,66,0.00,,CLR,0.01,776.00,VWS V14.01,2013-09-07 15:36:00,
2013-09-07 11:41:00,69.3,56.2,30.08,NNW,336,1.0,1.0,63,0.00,,CLR,0.01,785.00,VWS V14.01,2013-09-07 15:41:00,
2013-09-07 11:46:00,69.8,56.7,30.08,East,89,0.0,1.0,63,0.00,,CLR,0.01,792.00,VWS V14.01,2013-09-07 15:46:00,
2013-09-07 11:51:00,70.3,56.7,30.07,East,89,0.0,1.0,62,0.00,,CLR,0.01,795.00,VWS V14.01,2013-09-07 15:51:00,
2013-09-07 11:57:00,70.8,57.6,30.07,ESE,114,0.0,2.0,63,0.00,,CLR,0.01,806.00,VWS V14.01,2013-09-07 15:57:00,
2013-09-07 12:02:00,71.3,56.2,30.07,East,97,0.0,2.0,59,0.00,,CLR,0.01,811.00,VWS V14.01,2013-09-07 16:02:00,
2013-09-07 12:07:00,72.0,56.9,30.06,SSE,152,0.0,0.0,59,0.00,,CLR,0.01,818.00,VWS V14.01,2013-09-07 16:07:00,
2013-09-07 12:12:00,72.5,58.3,30.06,ENE,61,1.0,3.0,61,0.00,,CLR,0.01,822.00,VWS V14.01,2013-09-07 16:12:00,
2013-09-07 12:17:00,73.0,56.4,30.06,NW,313,0.0,1.0,56,0.00,,CLR,0.01,836.00,VWS V14.01,2013-09-07 16:17:00,
2013-09-07 12:22:00,73.7,58.0,30.05,NNW,328,0.0,1.0,58,0.00,,CLR,0.01,839.00,VWS V14.01,2013-09-07 16:22:00,
2013-09-07 12:27:00,74.3,56.6,30.05,ENE,71,0.0,3.0,54,0.00,,CLR,0.01,846.00,VWS V14.01,2013-09-07 16:27:00,
2013-09-07 12:32:00,74.6,56.4,30.05,ENE,64,0.0,3.0,53,0.00,,CLR,0.01,848.00,VWS V14.01,2013-09-07 16:32:00,
2013-09-07 12:37:00,75.1,56.8,30.04,East,86,1.0,3.0,53,0.00,,CLR,0.01,855.00,VWS V14.01,2013-09-07 16:37:00,
2013-09-07 12:42:00,75.5,55.0,30.04,ENE,75,2.0,3.0,49,0.00,,CLR,0.01,857.00,VWS V14.01,2013-09-07 16:42:00,
2013-09-07 12:47:00,75.8,55.9,30.04,ENE,65,0.0,3.0,50,0.00,,CLR,0.01,866.00,VWS V14.01,2013-09-07 16:47:00,
2013-09-07 12:52:00,75.8,53.6,30.04,East,83,0.0,4.0,46,0.00,,CLR,0.01,874.00,VWS V14.01,2013-09-07 16:52:00,
2013-09-07 12:57:00,76.0,51.9,30.04,East,80,5.0,5.0,43,0.00,,CLR,0.01,839.00,VWS V14.01,2013-09-07 16:57:00,
2013-09-07 13:03:00,76.2,52.7,30.04,East,85,1.0,5.0,44,0.00,,CLR,0.01,873.00,VWS V14.01,2013-09-07 17:03:00,
2013-09-07 13:08:00,76.4,54.7,30.04,NE,56,0.0,3.0,47,0.00,,CLR,0.01,781.00,VWS V14.01,2013-09-07 17:08:00,
2013-09-07 13:13:00,77.1,55.3,30.04,ENE,69,1.0,3.0,47,0.00,,CLR,0.01,829.00,VWS V14.01,2013-09-07 17:13:00,
2013-09-07 13:18:00,77.1,54.2,30.03,NE,54,3.0,4.0,45,0.00,,CLR,0.01,788.00,VWS V14.01,2013-09-07 17:18:00,
2013-09-07 13:23:00,76.9,54.0,30.03,ENE,71,0.0,5.0,45,0.00,,CLR,0.01,816.00,VWS V14.01,2013-09-07 17:23:00,
2013-09-07 13:28:00,76.9,55.2,30.03,ENE,62,1.0,2.0,47,0.00,,CLR,0.01,799.00,VWS V14.01,2013-09-07 17:28:00,
2013-09-07 13:33:00,77.1,52.9,30.02,East,79,0.0,3.0,43,0.00,,CLR,0.01,874.00,VWS V14.01,2013-09-07 17:33:00,
2013-09-07 13:38:00,77.6,54.0,30.02,ENE,76,0.0,3.0,44,0.00,,CLR,0.01,882.00,VWS V14.01,2013-09-07 17:38:00,
2013-09-07 13:43:00,77.6,52.7,30.02,ENE,61,2.0,3.0,42,0.00,,CLR,0.01,878.00,VWS V14.01,2013-09-07 17:43:00,
2013-09-07 13:48:00,77.8,55.4,30.01,East,82,0.0,3.0,46,0.00,,CLR,0.01,867.00,VWS V14.01,2013-09-07 17:48:00,
2013-09-07 13:53:00,78.0,53.7,30.01,ENE,68,1.0,1.0,43,0.00,,CLR,0.01,867.00,VWS V14.01,2013-09-07 17:53:00,
2013-09-07 13:58:00,78.2,55.8,30.01,ENE,68,0.0,2.0,46,0.00,,CLR,0.01,802.00,VWS V14.01,2013-09-07 17:58:00,
2013-09-07 14:03:00,78.0,52.4,30.00,NNW,337,0.0,0.0,41,0.00,,CLR,0.01,846.00,VWS V14.01,2013-09-07 18:03:00,
2013-09-07 14:09:00,78.2,53.9,30.00,North,8,0.0,1.0,43,0.00,,CLR,0.01,859.00,VWS V14.01,2013-09-07 18:09:00,
2013-09-07 14:14:00,78.2,53.2,30.00,NNE,14,0.0,0.0,42,0.00,,CLR,0.01,857.00,VWS V14.01,2013-09-07 18:14:00,
2013-09-07 14:19:00,78.2,52.6,30.00,East,88,0.0,2.0,41,0.00,,CLR,0.01,829.00,VWS V14.01,2013-09-07 18:19:00,
2013-09-07 14:24:00,78.8,55.1,30.00,East,88,0.0,0.0,44,0.00,,CLR,0.01,806.00,VWS V14.01,2013-09-07 18:24:00,
2013-09-07 14:29:00,79.3,54.9,30.00,East,88,0.0,1.0,43,0.00,,CLR,0.01,832.00,VWS V14.01,2013-09-07 18:29:00,
2013-09-07 14:34:00,79.9,53.5,29.99,WNW,287,0.0,0.0,40,0.00,,CLR,0.01,823.00,VWS V14.01,2013-09-07 18:34:00,
2013-09-07 14:39:00,80.4,53.9,29.99,NNW,329,0.0,3.0,40,0.00,,CLR,0.01,825.00,VWS V14.01,2013-09-07 18:39:00,
2013-09-07 14:44:00,80.4,51.8,29.99,WSW,241,0.0,0.0,37,0.00,,CLR,0.01,829.00,VWS V14.01,2013-09-07 18:44:00,
2013-09-07 14:49:00,80.4,53.2,29.98,SE,134,0.0,1.0,39,0.00,,CLR,0.01,839.00,VWS V14.01,2013-09-07 18:49:00,
2013-09-07 14:54:00,80.8,52.8,29.98,ESE,120,0.0,1.0,38,0.00,,CLR,0.01,816.00,VWS V14.01,2013-09-07 18:54:00,
2013-09-07 14:59:00,81.0,52.3,29.98,East,85,0.0,2.0,37,0.00,,CLR,0.01,774.00,VWS V14.01,2013-09-07 18:59:00,
2013-09-07 15:04:00,81.0,53.7,29.97,NW,315,1.0,4.0,39,0.00,,CLR,0.01,711.00,VWS V14.01,2013-09-07 19:04:00,
2013-09-07 15:09:00,81.0,55.8,29.97,NW,319,0.0,4.0,42,0.00,,CLR,0.01,804.00,VWS V14.01,2013-09-07 19:09:00,
2013-09-07 15:15:00,81.2,51.7,29.97,NW,319,0.0,0.0,36,0.00,,CLR,0.01,822.00,VWS V14.01,2013-09-07 19:15:00,
2013-09-07 15:20:00,81.2,52.5,29.97,ENE,73,0.0,3.0,37,0.00,,CLR,0.01,802.00,VWS V14.01,2013-09-07 19:20:00,
2013-09-07 15:25:00,81.4,56.8,29.97,East,79,0.0,0.0,43,0.00,,CLR,0.01,815.00,VWS V14.01,2013-09-07 19:25:00,
2013-09-07 15:30:00,81.6,54.3,29.97,ENE,78,0.0,2.0,39,0.00,,CLR,0.01,537.00,VWS V14.01,2013-09-07 19:30:00,
2013-09-07 15:35:00,81.4,55.5,29.96,ESE,104,0.0,0.0,41,0.00,,CLR,0.01,426.00,VWS V14.01,2013-09-07 19:35:00,
2013-09-07 15:40:00,81.2,53.2,29.96,ESE,120,0.0,2.0,38,0.00,,CLR,0.01,445.00,VWS V14.01,2013-09-07 19:40:00,
2013-09-07 15:45:00,80.6,51.2,29.96,ESE,103,0.0,2.0,36,0.00,,CLR,0.01,711.00,VWS V14.01,2013-09-07 19:45:00,
2013-09-07 15:50:00,80.8,52.1,29.96,SE,124,1.0,2.0,37,0.00,,CLR,0.01,684.00,VWS V14.01,2013-09-07 19:50:00,
2013-09-07 15:55:00,81.2,53.2,29.96,SW,215,0.0,1.0,38,0.00,,CLR,0.01,665.00,VWS V14.01,2013-09-07 19:55:00,
2013-09-07 16:00:00,81.4,51.9,29.96,SE,126,0.0,3.0,36,0.00,,CLR,0.01,656.00,VWS V14.01,2013-09-07 20:00:00,
2013-09-07 16:05:00,81.8,53.7,29.95,SE,126,0.0,3.0,38,0.00,,CLR,0.01,637.00,VWS V14.01,2013-09-07 20:05:00,
2013-09-07 16:10:00,82.0,56.7,29.95,SSW,199,0.0,3.0,42,0.00,,CLR,0.01,621.00,VWS V14.01,2013-09-07 20:10:00,
2013-09-07 16:16:00,82.2,51.8,29.95,SSW,199,0.0,0.0,35,0.00,,CLR,0.01,607.00,VWS V14.01,2013-09-07 20:16:00,
2013-09-07 16:21:00,82.4,52.0,29.95,ESE,107,0.0,2.0,35,0.00,,CLR,0.01,582.00,VWS V14.01,2013-09-07 20:21:00,
2013-09-07 16:26:00,82.4,52.0,29.95,ENE,76,1.0,3.0,35,0.00,,CLR,0.01,581.00,VWS V14.01,2013-09-07 20:26:00,
2013-09-07 16:31:00,82.4,52.0,29.95,ESE,112,0.0,3.0,35,0.00,,CLR,0.01,565.00,VWS V14.01,2013-09-07 20:31:00,
2013-09-07 16:36:00,82.4,54.3,29.94,East,99,0.0,1.0,38,0.00,,CLR,0.01,549.00,VWS V14.01,2013-09-07 20:36:00,
2013-09-07 16:41:00,82.6,53.0,29.94,ESE,102,0.0,1.0,36,0.00,,CLR,0.01,533.00,VWS V14.01,2013-09-07 20:41:00,
2013-09-07 16:46:00,82.8,52.4,29.94,SSE,150,0.0,1.0,35,0.00,,CLR,0.01,519.00,VWS V14.01,2013-09-07 20:46:00,
2013-09-07 16:51:00,83.1,52.6,29.94,ESE,102,2.0,2.0,35,0.00,,CLR,0.01,503.00,VWS V14.01,2013-09-07 20:51:00,
2013-09-07 16:56:00,83.1,53.4,29.94,ESE,102,0.0,0.0,36,0.00,,CLR,0.01,486.00,VWS V14.01,2013-09-07 20:56:00,
2013-09-07 17:01:00,83.5,53.8,29.94,SSE,164,0.0,1.0,36,0.00,,CLR,0.01,473.00,VWS V14.01,2013-09-07 21:01:00,
2013-09-07 17:06:00,83.7,53.9,29.94,NNE,32,0.0,3.0,36,0.00,,CLR,0.01,457.00,VWS V14.01,2013-09-07 21:06:00,
2013-09-07 17:11:00,83.5,53.0,29.94,ESE,103,0.0,3.0,35,0.00,,CLR,0.01,442.00,VWS V14.01,2013-09-07 21:11:00,
2013-09-07 17:16:00,83.1,52.6,29.94,SSE,155,0.0,2.0,35,0.00,,CLR,0.01,426.00,VWS V14.01,2013-09-07 21:16:00,
2013-09-07 17:22:00,83.3,52.8,29.94,East,95,0.0,2.0,35,0.00,,CLR,0.01,408.00,VWS V14.01,2013-09-07 21:22:00,
2013-09-07 17:27:00,83.5,52.2,29.94,ESE,120,0.0,2.0,34,0.00,,CLR,0.01,357.00,VWS V14.01,2013-09-07 21:27:00,
2013-09-07 17:32:00,83.7,53.2,29.94,East,90,2.0,2.0,35,0.00,,CLR,0.01,371.00,VWS V14.01,2013-09-07 21:32:00,
2013-09-07 17:37:00,83.7,55.4,29.93,ESE,109,1.0,2.0,38,0.00,,CLR,0.01,338.00,VWS V14.01,2013-09-07 21:37:00,
2013-09-07 17:42:00,83.5,56.7,29.93,ESE,110,0.0,2.0,40,0.00,,CLR,0.01,324.00,VWS V14.01,2013-09-07 21:42:00,
2013-09-07 17:47:00,83.5,53.8,29.93,ENE,76,1.0,2.0,36,0.00,,CLR,0.01,326.00,VWS V14.01,2013-09-07 21:47:00,
2013-09-07 17:52:00,83.5,56.0,29.93,ENE,68,0.0,2.0,39,0.00,,CLR,0.01,311.00,VWS V14.01,2013-09-07 21:52:00,
2013-09-07 17:57:00,83.1,55.6,29.93,NE,55,3.0,4.0,39,0.00,,CLR,0.01,289.00,VWS V14.01,2013-09-07 21:57:00,
2013-09-07 18:02:00,82.8,56.0,29.93,ENE,68,0.0,4.0,40,0.00,,CLR,0.01,259.00,VWS V14.01,2013-09-07 22:02:00,
2013-09-07 18:07:00,82.6,56.5,29.93,ENE,68,0.0,0.0,41,0.00,,CLR,0.01,202.00,VWS V14.01,2013-09-07 22:07:00,
2013-09-07 18:12:00,82.6,56.5,29.93,ENE,62,0.0,1.0,41,0.00,,CLR,0.01,208.00,VWS V14.01,2013-09-07 22:12:00,
2013-09-07 18:18:00,82.6,55.2,29.93,ENE,62,0.0,2.0,39,0.00,,CLR,0.01,165.00,VWS V14.01,2013-09-07 22:18:00,
2013-09-07 18:23:00,82.6,55.2,29.93,ENE,62,0.0,2.0,39,0.00,,CLR,0.01,178.00,VWS V14.01,2013-09-07 22:23:00,
2013-09-07 18:28:00,82.8,56.0,29.93,ENE,62,0.0,0.0,40,0.00,,CLR,0.01,146.00,VWS V14.01,2013-09-07 22:28:00,
2013-09-07 18:33:00,82.8,56.0,29.93,ENE,62,0.0,0.0,40,0.00,,CLR,0.01,113.00,VWS V14.01,2013-09-07 22:33:00,
2013-09-07 18:38:00,82.4,57.0,29.93,ENE,62,0.0,0.0,42,0.00,,CLR,0.01,93.00,VWS V14.01,2013-09-07 22:38:00,
2013-09-07 18:43:00,82.0,58.0,29.93,ENE,62,0.0,0.0,44,0.00,,CLR,0.01,63.00,VWS V14.01,2013-09-07 22:43:00,
2013-09-07 18:48:00,81.2,59.7,29.94,ENE,62,0.0,0.0,48,0.00,,CLR,0.01,63.00,VWS V14.01,2013-09-07 22:48:00,
2013-09-07 18:53:00,80.2,60.5,29.94,ENE,62,0.0,0.0,51,0.00,,CLR,0.01,58.00,VWS V14.01,2013-09-07 22:53:00,
2013-09-07 18:58:00,79.5,61.4,29.94,ENE,62,0.0,0.0,54,0.00,,CLR,0.01,46.00,VWS V14.01,2013-09-07 22:58:00,
2013-09-07 19:03:00,78.2,61.2,29.94,ENE,62,0.0,0.0,56,0.00,,CLR,0.01,39.00,VWS V14.01,2013-09-07 23:03:00,
2013-09-07 19:08:00,77.3,60.9,29.94,ENE,62,0.0,0.0,57,0.00,,CLR,0.01,35.00,VWS V14.01,2013-09-07 23:08:00,
2013-09-07 19:13:00,76.7,59.8,29.94,ENE,62,0.0,0.0,56,0.00,,CLR,0.01,30.00,VWS V14.01,2013-09-07 23:13:00,
2013-09-07 19:18:00,75.7,60.8,29.94,ENE,62,0.0,0.0,60,0.00,,CLR,0.01,26.00,VWS V14.01,2013-09-07 23:18:00,
2013-09-07 19:24:00,75.0,60.7,29.94,ENE,68,0.0,0.0,61,0.00,,CLR,0.01,16.00,VWS V14.01,2013-09-07 23:24:00,
2013-09-07 19:29:00,73.9,60.5,29.94,ENE,68,0.0,0.0,63,0.00,,CLR,0.01,12.00,VWS V14.01,2013-09-07 23:29:00,
2013-09-07 19:34:00,72.9,60.5,29.95,ENE,68,0.0,0.0,65,0.00,,CLR,0.01,9.00,VWS V14.01,2013-09-07 23:34:00,
2013-09-07 19:39:00,71.7,60.2,29.95,SSE,162,0.0,0.0,67,0.00,,CLR,0.01,5.00,VWS V14.01,2013-09-07 23:39:00,
2013-09-07 19:44:00,70.6,60.0,29.95,SSE,162,0.0,0.0,69,0.00,,CLR,0.01,0.00,VWS V14.01,2013-09-07 23:44:00,
2013-09-07 19:49:00,69.9,59.7,29.95,SSE,162,0.0,0.0,70,0.00,,CLR,0.01,0.00,VWS V14.01,2013-09-07 23:49:00,
2013-09-07 19:54:00,69.1,59.7,29.95,SSE,162,0.0,0.0,72,0.00,,CLR,0.01,0.00,VWS V14.01,2013-09-07 23:54:00,
2013-09-07 19:59:00,68.3,59.7,29.95,SSE,162,0.0,0.0,74,0.00,,CLR,0.01,0.00,VWS V14.01,2013-09-07 23:59:00,
2013-09-07 20:04:00,67.4,59.6,29.96,SSE,162,0.0,0.0,76,0.00,,CLR,0.01,0.00,VWS V14.01,2013-09-08 00:04:00,
2013-09-07 20:09:00,67.1,59.3,29.96,SW,226,1.0,2.0,76,0.00,,CLR,0.01,0.00,VWS V14.01,2013-09-08 00:09:00,
2013-09-07 20:14:00,67.9,54.0,29.96,North,359,1.0,1.0,61,0.00,,CLR,0.01,0.00,VWS V14.01,2013-09-08 00:14:00,
2013-09-07 20:19:00,67.9,58.5,29.95,SSW,198,0.0,3.0,72,0.00,,CLR,0.01,0.00,VWS V14.01,2013-09-08 00:19:00,
2013-09-07 20:24:00,67.4,58.5,29.95,SSW,198,0.0,0.0,73,0.00,,CLR,0.01,0.00,VWS V14.01,2013-09-08 00:24:00,
2013-09-07 20:30:00,67.1,58.2,29.95,SSW,209,1.0,3.0,73,0.00,,CLR,0.01,0.00,VWS V14.01,2013-09-08 00:30:00,
2013-09-07 20:35:00,66.9,58.0,29.96,SSW,209,0.0,0.0,73,0.00,,CLR,0.01,0.00,VWS V14.01,2013-09-08 00:35:00,
2013-09-07 20:40:00,66.6,58.4,29.96,SSW,209,0.0,0.0,75,0.00,,CLR,0.01,0.00,VWS V14.01,2013-09-08 00:40:00,
2013-09-07 20:45:00,65.9,58.1,29.96,SSW,209,0.0,0.0,76,0.00,,CLR,0.01,0.00,VWS V14.01,2013-09-08 00:45:00,
2013-09-07 20:50:00,65.4,58.0,29.95,SSW,209,0.0,1.0,77,0.00,,CLR,0.01,0.00,VWS V14.01,2013-09-08 00:50:00,
2013-09-07 20:55:00,64.8,57.8,29.95,SSW,209,0.0,0.0,78,0.00,,CLR,0.01,0.00,VWS V14.01,2013-09-08 00:55:00,
2013-09-07 21:00:00,64.5,57.8,29.95,SSW,209,0.0,0.0,79,0.00,,CLR,0.01,0.00,VWS V14.01,2013-09-08 01:00:00,
2013-09-07 21:05:00,64.5,57.8,29.96,West,274,0.0,2.0,79,0.00,,CLR,0.01,0.00,VWS V14.01,2013-09-08 01:05:00,
2013-09-07 21:10:00,64.3,58.0,29.96,NW,316,0.0,2.0,80,0.00,,CLR,0.01,0.00,VWS V14.01,2013-09-08 01:10:00,
2013-09-07 21:15:00,64.0,58.1,29.96,NW,316,0.0,0.0,81,0.00,,CLR,0.01,0.00,VWS V14.01,2013-09-08 01:15:00,
2013-09-07 21:20:00,63.7,57.8,29.97,NW,316,0.0,0.0,81,0.00,,CLR,0.01,0.00,VWS V14.01,2013-09-08 01:20:00,
2013-09-07 21:25:00,63.5,57.9,29.97,NW,316,0.0,0.0,82,0.00,,CLR,0.01,0.00,VWS V14.01,2013-09-08 01:25:00,
2013-09-07 21:30:00,63.3,57.7,29.97,NW,316,0.0,0.0,82,0.00,,CLR,0.01,0.00,VWS V14.01,2013-09-08 01:30:00,
2013-09-07 21:36:00,63.0,57.8,29.97,NW,316,0.0,0.0,83,0.00,,CLR,0.01,0.00,VWS V14.01,2013-09-08 01:36:00,
2013-09-07 21:41:00,62.7,57.5,29.97,NW,316,0.0,0.0,83,0.00,,CLR,0.01,0.00,VWS V14.01,2013-09-08 01:41:00,
2013-09-07 21:46:00,62.4,57.2,29.97,NW,316,0.0,0.0,83,0.00,,CLR,0.01,0.00,VWS V14.01,2013-09-08 01:46:00,
2013-09-07 21:51:00,62.2,57.0,29.97,NW,305,0.0,2.0,83,0.00,,CLR,0.01,0.00,VWS V14.01,2013-09-08 01:51:00,
2013-09-07 21:56:00,61.9,56.7,29.97,NW,305,0.0,0.0,83,0.00,,CLR,0.01,0.00,VWS V14.01,2013-09-08 01:56:00,
2013-09-07 22:01:00,61.9,56.0,29.97,WSW,251,0.0,1.0,81,0.00,,CLR,0.01,0.00,VWS V14.01,2013-09-08 02:01:00,
2013-09-07 22:06:00,61.9,55.7,29.96,WSW,251,0.0,0.0,80,0.00,,CLR,0.01,0.00,VWS V14.01,2013-09-08 02:06:00,
2013-09-07 22:11:00,61.7,55.8,29.96,WSW,251,0.0,0.0,81,0.00,,CLR,0.01,0.00,VWS V14.01,2013-09-08 02:11:00,
2013-09-07 22:16:00,61.6,55.7,29.96,WSW,251,0.0,0.0,81,0.00,,CLR,0.01,0.00,VWS V14.01,2013-09-08 02:16:00,
2013-09-07 22:21:00,61.4,55.5,29.96,WSW,251,0.0,0.0,81,0.00,,CLR,0.01,0.00,VWS V14.01,2013-09-08 02:21:00,
2013-09-07 22:26:00,61.1,55.2,29.96,WSW,251,0.0,0.0,81,0.00,,CLR,0.01,0.00,VWS V14.01,2013-09-08 02:26:00,
2013-09-07 22:31:00,60.8,55.3,29.96,WSW,251,0.0,0.0,82,0.00,,CLR,0.01,0.00,VWS V14.01,2013-09-08 02:31:00,
2013-09-07 22:36:00,60.6,55.1,29.96,WSW,251,0.0,0.0,82,0.00,,CLR,0.01,0.00,VWS V14.01,2013-09-08 02:36:00,
2013-09-07 22:42:00,60.5,55.0,29.96,WSW,251,0.0,0.0,82,0.00,,CLR,0.01,0.00,VWS V14.01,2013-09-08 02:42:00,
2013-09-07 22:47:00,60.2,54.7,29.96,SSE,160,0.0,2.0,82,0.00,,CLR,0.01,0.00,VWS V14.01,2013-09-08 02:47:00,
2013-09-07 22:52:00,60.0,54.5,29.97,SSE,160,0.0,2.0,82,0.00,,CLR,0.01,0.00,VWS V14.01,2013-09-08 02:52:00,
2013-09-07 22:57:00,59.9,54.4,29.97,SSE,160,0.0,0.0,82,0.00,,CLR,0.01,0.00,VWS V14.01,2013-09-08 02:57:00,
2013-09-07 23:02:00,59.7,54.2,29.97,SSE,160,0.0,0.0,82,0.00,,CLR,0.01,0.00,VWS V14.01,2013-09-08 03:02:00,
2013-09-07 23:07:00,59.5,54.3,29.97,SSE,160,0.0,0.0,83,0.00,,CLR,0.01,0.00,VWS V14.01,2013-09-08 03:07:00,
2013-09-07 23:12:00,59.2,54.0,29.97,SSE,160,0.0,0.0,83,0.00,,CLR,0.01,0.00,VWS V14.01,2013-09-08 03:12:00,
2013-09-07 23:17:00,58.8,54.0,29.96,SSE,160,0.0,0.0,84,0.00,,CLR,0.01,0.00,VWS V14.01,2013-09-08 03:17:00,
2013-09-07 23:22:00,58.5,54.0,29.96,SSE,167,0.0,0.0,85,0.00,,CLR,0.01,0.00,VWS V14.01,2013-09-08 03:22:00,
2013-09-07 23:27:00,58.2,54.0,29.96,SSE,167,0.0,0.0,86,0.00,,CLR,0.01,0.00,VWS V14.01,2013-09-08 03:27:00,
2013-09-07 23:32:00,58.0,53.8,29.96,SSE,167,0.0,0.0,86,0.00,,CLR,0.01,0.00,VWS V14.01,2013-09-08 03:32:00,
2013-09-07 23:37:00,57.9,53.7,29.96,SSE,167,0.0,0.0,86,0.00,,CLR,0.01,0.00,VWS V14.01,2013-09-08 03:37:00,
2013-09-07 23:43:00,57.9,54.1,29.96,SSE,167,0.0,0.0,87,0.00,,CLR,0.01,0.00,VWS V14.01,2013-09-08 03:43:00,
2013-09-07 23:48:00,57.9,54.1,29.96,SSE,167,0.0,0.0,87,0.00,,CLR,0.01,0.00,VWS V14.01,2013-09-08 03:48:00,
2013-09-07 23:53:00,57.9,54.4,29.96,SSE,167,0.0,0.0,88,0.00,,CLR,0.01,0.00,VWS V14.01,2013-09-08 03:53:00,
2013-09-07 23:58:00,57.9,54.4,29.96,SSE,167,0.0,0.0,88,0.00,,CLR,0.01,0.00,VWS V14.01,2013-09-08 03:58:00,